Regional Weather Roundup
Issued by NWS Upton, NY

Home | Current Version | Previous Version | Text Only | Print | Product List | Glossary On
Versions: 1 2 3 4 5 6 7 8 9 10 11 12 13 14 15 16 17 18 19 20 21 22 23 24 25 26 27 28 29 30 31 32 33 34 35 36 37 38 39 40 41 42 43 44 45 46 47 48 49 50
000
ASUS41 KOKX 021704
RWROKX

REGIONAL WEATHER ROUNDUP
NATIONAL WEATHER SERVICE NEW YORK NY
100 PM EDT SUN AUG 02 2015

NOTE: "FAIR" INDICATES FEW OR NO CLOUDS BELOW 12,000 FEET WITH NO
SIGNIFICANT WEATHER AND/OR OBSTRUCTIONS TO VISIBILITY.

NYZ071-072-176-178-NJZ106-104-021800-
NEW YORK CITY METRO AREA


CITY           SKY/WX    TMP DP  RH WIND       PRES   REMARKS
CENTRAL PARK   SUNNY     88  54  31 MISG      29.94F
LAGUARDIA APRT PTSUNNY   87  50  27 S9G17     29.91F
KENNEDY INTL   MOSUNNY   86  54  33 S12       29.93F
NEWARK/LIBERTY PTSUNNY   88  50  27 VRB5      29.91F
BRNX BOT. GARD   N/A     84  48  28 S8        29.93F
TETERBORO      SUNNY     87  50  27 W9        29.90F
$$

NYZ177-179-078>081-021800-
LONG ISLAND NEW YORK

CITY           SKY/WX    TMP DP  RH WIND       PRES   REMARKS
FARMINGDALE    SUNNY     84  56  38 S12       29.93F
ISLIP          MOSUNNY   83  56  39 S12       29.92S
SHIRLEY        SUNNY     84  54  35 S12       29.94F
WESTHAMPTON    SUNNY     85  53  33 S12       29.95F
MONTAUK POINT    N/A     82  56  40 S6        29.95S
$$

NYZ052-065-067-021800-
HUDSON VALLEY

CITY           SKY/WX    TMP DP  RH WIND       PRES   REMARKS
WHITE PLAINS   MOSUNNY   84  50  30 SW5       29.92F
NEWBURGH       MOSUNNY   84  55  37 S7        29.93F
MONTGOMERY     PTSUNNY   84  57  39 W3G20     29.91F
POUGHKEEPSIE   MOSUNNY   85  53  33 SW8       29.90F
ALBANY         PTSUNNY   83  58  42 S9        29.88F
$$

NJZ001-105-106-008-010-013-015-019>022-104-021800-
NEW JERSEY

CITY           SKY/WX    TMP DP  RH WIND       PRES   REMARKS
NEWARK/LIBERTY PTSUNNY   88  50  27 VRB5      29.91F
TETERBORO      SUNNY     87  50  27 W9        29.90F
CALDWELL       MOSUNNY   86  52  30 VRB6      29.92F
MORRISTOWN     PTSUNNY   86  52  30 NW3G13    29.93F
SOMERVILLE     MOSUNNY   86  55  34 VRB6      29.91F
SUSSEX         SUNNY     82  56  40 VRB6      29.93F
ANDOVER          N/A     81  58  45 SW12      29.95F
TRENTON        SUNNY     85  51  31 VRB3      29.93F
MILLVILLE      MOSUNNY   87  52  29 SW5       29.95F
ATLANTIC CITY  MOSUNNY   87  59  38 W6        29.94F
WRIGHTSTOWN    SUNNY     86  55  34 W7        29.91F
TOMS RIVER       N/A     86  54  32 CALM      29.93F
BELMAR         MOSUNNY   84  61  45 SE7       29.93F
$$

PAZ047>061-062-071-021800-
EASTERN PENNSYLVANIA

CITY           SKY/WX    TMP DP  RH WIND       PRES   REMARKS
PHILADELPHIA   PTSUNNY   87  52  29 VRB7      29.94F
ALLENTOWN      MOSUNNY   83  58  42 W10       29.94F
SCRANTON       SUNNY     83  53  35 W15       29.93F
$$

CTZ002-004>006-009-010-012-RIZ004-006-007-MAZ004-011-015-021800-
SOUTHERN NEW ENGLAND
 IN CT

CITY           SKY/WX    TMP DP  RH WIND       PRES   REMARKS
BRADLEY INTL   MOSUNNY   84  55  36 SW13G20   29.90F
HARTFORD       MOSUNNY   85  54  34 W9G17     29.90F
DANBURY        SUNNY     80  54  40 W9G16     29.94F
WTRBRY/OXFORD  MOSUNNY   81  57  44 W6        29.96F
BRIDGEPORT     SUNNY     83  55  38 S7        29.93F
MERIDEN        SUNNY     86  53  32 VRB7G16   29.91F
NEW HAVEN      MOSUNNY   81  55  40 S6        29.93F
CHESTER        FAIR      81  55  41 SW8       29.95F
GROTON         SUNNY     80  56  43 S9        29.92F
WILLIMANTIC    MOSUNNY   83  55  38 SW9G17    29.92F

 IN RI

CITY           SKY/WX    TMP DP  RH WIND       PRES   REMARKS
PROVIDENCE     MOSUNNY   85  53  33 SW16      29.92F
BLOCK ISLAND     N/A     82  54  36 W7        29.95S
WESTERLY       SUNNY     82  52  35 SW8       29.94F

 IN MA

CITY           SKY/WX    TMP DP  RH WIND       PRES   REMARKS
BOSTON         MOSUNNY   85  54  34 SW10G18   29.89F
WORCESTER      SUNNY     78  53  41 SW15      29.94F
WESTFIELD      MOSUNNY   83  55  38 S10       29.90F
PROVINCETOWN   SUNNY     82  52  34 SW7       29.91F
NANTUCKET      SUNNY     82  59  45 SW12      29.93S
$$

ANZ330-335-338-340-345-350-353-355-021800-
COASTAL MARINE OBSERVATIONS


STATION/POSITION TIME  SKY/WX   TEMP    WIND        PRES    VSBY  WAVE
                                AIR SEA DIR/SP/G                  HT/PER
                 (UTC)          (F)     (DEG/KT/KT) (MB)    (MI)  (FT/S)
NY HARB ENTRANCE 1550            76 78  120/  4/  6 1013.7          3/ 8
4S FIRE IS       NOT AVBL
20S FIRE ISLAND  1550            76 77  110/  2/  2 1013.7          3/ 8
GREAT SOUTH BAY  1600            76 81   90/  2/  8   N/A
23SW MTP         1650            76 75  180/  6/  6 1013.5          3/ 8
HUDSON CANYON    NOT AVBL
KINGS POINT      1600            82 71  190/  1/  2 1012.8
EXECUTION ROCKS  1600            75      90/  4/  4   N/A
CENTRAL LI SOUND NOT AVBL
EASTERN LI SOUND 1600            74 69  270/  2/  4   N/A
ROBBINS REEF     1600            79     160/ 12/ 13 1012.4
$$


>>>>>>>>>>>>>>>>>>>>>>>>>>>> KEY <<<<<<<<<<<<<<<<<<<<<<<<<<<
>                                                          <
>     SKY/WX - SKY CONDITION/PRESENT WEATHER               <
>     TMP    - TEMPERATURE IN FAHRENHEIT                   <
>     DP     - DEWPOINT IN FAHRENHEIT                      <
>     RH     - RELATIVE HUMIDITY IN PERCENT                <
>     WIND   - DIRECTION AND SPEED IN MPH                  <
>     PRES   - MEAN SEA LEVEL PRESSURE IN INCHES OF HG     <
>     WCI    - WIND CHILL INDEX                            <
>     VSB    - VISIBILITY IN MILES                         <
>     HX     - HEAT INDEX                                  <
>     TC     - TEMPERATURE IN CELSIUS                      <
>     VRB    - VARIABLE WIND DIRECTION                     <
>                                                          <
>>>>>>>>>>>>>>>>>>>>>>>>>>>> KEY <<<<<<<<<<<<<<<<<<<<<<<<<<<




USA.gov is the U.S. government's official web portal to all federal, state and local government web resources and services.